CAPE
836 954 425 379 562 708 597 389 477 733 533 907 805 340 290 360 353 334 337 416 630 417 595 449 260 746 640 394 130 0 0 0 0
622 806 749 364 495 590 593 448 530 631 524 884 878 421 357 363 365 396 392 443 527 476 534 302 348 693 486 262 37 17 0 0 0
269 671 824 759 623 604 595 442 566 686 555 741 795 381 273 413 383 404 369 405 457 367 301 203 260 558 320 150 20 77 4 0 0
63 306 562 584 726 704 603 413 378 590 576 490 624 431 305 357 369 319 273 272 434 299 115 76 71 81 333 41 20 67 5 0 5
0 21 433 540 364 529 511 404 318 308 590 528 558 343 281 382 361 325 258 193 410 277 73 31 32 65 252 0 40 115 16 3 0
0 8 111 218 440 406 423 483 335 320 335 567 560 315 443 419 385 318 196 128 347 347 191 51 32 144 269 56 81 125 70 21 5
1 0 34 235 387 390 462 457 422 312 324 392 449 411 435 403 367 330 148 152 282 426 263 90 25 44 347 93 43 66 52 35 22
1 70 367 617 439 577 493 642 513 407 425 500 433 366 380 369 377 320 112 182 319 403 346 143 23 76 384 117 62 87 59 29 1
1 35 209 455 541 519 374 480 502 414 518 438 372 399 395 387 347 279 113 98 267 427 419 276 124 64 328 200 93 20 21 7 0
4 1 1 1 12 161 271 290 274 369 272 293 209 262 364 327 243 181 73 39 125 188 305 244 233 265 263 263 141 14 0 3 5
3 1 0 2 2 2 5 31 196 217 293 265 228 275 176 136 100 159 87 4 15 63 144 154 189 256 246 288 233 19 0 0 58
0 0 0 0 0 0 0 0 1 49 90 112 203 241 263 221 195 136 111 137 8 24 14 63 190 215 237 69 272 113 18 0 81
0 0 0 0 0 0 0 0 0 0 48 121 182 132 174 186 156 79 16 30 7 3 0 14 48 87 202 180 167 308 121 48 5
0 0 0 0 0 0 0 0 0 0 0 0 16 67 53 84 178 190 197 204 55 3 0 0 0 0 0 6 64 99 370 126 95
0 0 0 0 0 0 0 0 0 0 2 1 1 14 62 81 85 37 65 87 62 48 10 10 0 0 0 0 4 79 111 339 226
0 0 0 0 0 1 0 0 0 0 1 0 0 10 22 32 56 103 123 182 176 100 64 13 5 18 0 0 0 0 30 219 269
0 0 0 0 0 1 1 1 2 1 2 2 0 2 0 27 61 93 138 160 192 186 141 102 72 100 88 72 70 40 0 37 175
0 0 0 0 0 0 1 1 2 3 0 1 2 2 8 0 33 106 75 52 6 2 3 2 2 1 2 1 26 11 26 0 1
0 0 0 0 0 0 0 0 2 2 4 1 0 2 2 0 2 4 0 1 4 6 6 6 7 5 5 5 3 6 1 10 46
0 0 0 0 0 0 0 0 0 1 3 4 5 3 2 0 1 0 9 0 4 4 5 6 4 4 3 2 3 4 2 5 5
CIN
-0 -1 -13 -25 -12 -3 -5 -20 -16 -2 -4 -0 -0 -13 -16 -13 -0 -0 -2 -1 -1 -3 -0 -2 -13 -0 -0 -5 -28 -3 -0 -0 -0
-0 -1 -2 -27 -20 -13 -6 -8 -9 -7 -5 -0 -0 -10 -18 -5 -1 -0 -0 -0 -1 -0 -0 -4 -3 -0 -0 -5 -56 -94 -0 -0 -0
-84 -1 -1 -2 -3 -9 -13 -15 -5 -6 -12 -0 -0 -13 -23 -2 -0 -0 -0 -2 -0 -1 -5 -6 -4 -0 -1 -10 -123 -28 -0 -0 -0
-197 -69 -13 -11 -1 -3 -10 -27 -19 -9 -6 -13 -4 -12 -27 -1 -0 -0 -1 -7 -0 -1 -23 -34 -28 -18 -1 -37 -66 -19 -0 -0 -2
-0 -233 -31 -30 -15 -4 -9 -24 -28 -42 -10 -11 -11 -25 -28 -1 -0 -0 -0 -8 -0 -1 -27 -50 -41 -16 -0 -0 -10 -15 -1 -6 -0
-0 -148 -131 -74 -12 -14 -12 -10 -26 -19 -23 -13 -5 -26 -0 -0 -0 -1 -8 -31 -3 -0 -1 -30 -43 -2 -0 -11 -11 -5 -6 -5 -9
-0 -0 -121 -52 -16 -17 -12 -6 -7 -13 -0 -2 -4 -3 -0 -0 -0 -0 -23 -27 -7 -1 -0 -11 -27 -21 -0 -4 -14 -10 -5 -6 -6
-0 -83 -2 -0 -6 -2 -6 -0 -0 -0 -0 -1 -0 -0 -0 -1 -0 -0 -34 -25 -5 -0 -0 -6 -18 -9 -0 -1 -8 -15 -14 -6 -15
-0 -134 -17 -0 -0 -0 -0 -0 -1 -3 -0 -0 -0 -0 -0 -0 -0 -6 -39 -38 -14 -0 -0 -0 -14 -36 -0 -0 -1 -21 -17 -5 -0
-0 -0 -0 -0 -56 -10 -0 -0 -1 -1 -13 -2 -9 -5 -0 -3 -12 -38 -60 -60 -20 -10 -1 -0 -0 -0 -0 -0 -2 -3 -0 -3 -6
-0 -0 -0 -0 -0 -0 -8 -32 -1 -0 -0 -0 -14 -2 -8 -2 -8 -14 -42 -89 -59 -31 -7 -7 -0 -0 -0 -0 -0 -6 -0 -0 -3
-0 -0 -0 -0 -0 -0 -0 -0 -9 -31 -42 -4 -0 -0 -0 -0 -0 -2 -15 -8 -46 -36 -55 -14 -6 -0 -0 -33 -0 -9 -13 -0 -2
-0 -0 -0 -0 -0 -0 -0 -0 -0 -0 -9 -3 -6 -0 -0 -6 -11 -35 -68 -43 -89 -99 -0 -45 -38 -16 -2 -1 -3 -0 -4 -14 -14
-0 -0 -0 -0 -0 -0 -0 -0 -0 -0 -0 -0 -47 -6 -12 -4 -0 -0 -0 -0 -50 -53 -15 -0 -0 -0 -0 -48 -2 -0 -0 -1 -14
-0 -0 -0 -0 -0 -0 -0 -0 -0 -0 -0 -0 -86 -27 -0 -0 -0 -24 -34 -34 -74 -77 -81 -105 -0 -31 -0 -0 -2 -1 -1 -0 -0
-0 -0 -0 -0 -0 -0 -0 -0 -0 -0 -0 -0 -6 -24 -15 -11 -2 -2 -0 -0 -6 -35 -39 -53 -49 -69 -6 -0 -0 -0 -12 -0 -0
-0 -0 -0 -0 -0 -0 -0 -0 -0 -0 -0 -0 -0 -0 -0 -5 -0 -1 -1 -1 -0 -0 -0 -0 -6 -1 -9 -18 -9 -4 -0 -18 -0
-0 -0 -0 -0 -0 -0 -0 -0 -0 -0 -0 -0 -0 -0 -0 -0 -1 -0 -4 -0 -5 -0 -0 -0 -0 -0 -0 -8 -0 -2 -5 -0 -17
-0 -0 -0 -0 -0 -0 -0 -0 -0 -0 -0 -0 -0 -0 -0 -0 -0 -5 -0 -0 -0 -0 -0 -0 -0 -0 -0 -0 -0 -0 -0 -6 -5
-0 -0 -0 -0 -0 -0 -0 -0 -0 -0 -0 -0 -0 -0 -0 -0 -0 -0 -1 -0 -0 -0 -0 -0 -0 -0 -0 -0 -0 -0 -0 -0 -0
Wind_Speed
22 19 18 18 19 19 19 17 15 15 15 13 10 7 4 4 11 9 6 6 4 5 7 9 4 5 6 4 7 10 8 6 7
24 24 19 19 18 17 17 18 15 14 14 12 11 9 6 8 10 10 7 7 5 8 9 12 11 7 7 9 10 11 8 7 8
25 26 22 20 19 16 15 17 18 16 15 14 12 9 9 17 12 12 11 8 9 10 11 13 14 12 9 12 13 11 8 10 9
27 26 25 24 21 17 16 15 16 20 18 16 15 13 9 15 16 15 15 10 10 11 13 14 17 18 11 12 13 12 10 9 13
29 29 27 25 25 23 18 19 21 21 21 15 18 17 16 19 17 17 17 14 13 13 14 16 19 18 13 12 13 13 9 11 15
28 28 28 28 25 18 17 19 22 23 23 22 16 19 22 22 21 20 17 17 18 17 16 16 19 21 17 16 16 17 11 13 14
30 29 29 27 27 24 20 22 20 16 23 23 22 22 25 25 23 23 19 19 20 19 19 20 21 22 24 19 20 16 14 12 12
29 28 26 26 26 25 23 21 20 16 20 27 23 21 26 26 26 24 21 21 21 22 21 22 23 24 22 19 20 18 16 15 16
26 28 26 26 25 26 26 26 26 27 24 24 28 26 24 24 24 27 23 24 23 23 23 23 24 25 24 22 25 23 20 19 19
23 22 23 23 23 25 27 29 30 31 30 30 31 33 30 25 25 27 29 30 29 27 28 27 26 27 28 27 26 25 23 21 21
21 21 22 24 24 23 24 26 31 32 31 34 35 33 36 31 27 26 26 30 33 35 32 31 32 31 30 30 30 26 25 24 22
20 21 22 24 24 24 25 25 26 27 28 37 33 35 33 34 34 32 32 30 32 37 37 35 35 36 34 33 32 28 28 27 24
22 22 23 25 25 26 27 28 29 29 29 33 36 30 31 31 30 29 29 27 32 29 36 38 36 36 38 37 36 33 30 29 27
23 23 24 25 26 27 29 30 30 33 32 31 31 32 34 31 31 29 28 30 36 38 36 38 40 40 40 40 40 38 36 34 31
24 24 25 26 27 28 29 30 31 32 33 35 36 36 35 33 32 32 32 31 31 32 37 37 39 40 41 44 42 44 42 41 37
25 25 26 26 27 28 29 30 31 30 32 35 35 36 36 37 36 34 33 33 32 32 34 37 37 40 41 45 47 46 45 45 45
26 26 26 27 27 28 29 30 31 29 31 33 35 37 35 34 34 34 33 35 34 33 33 35 37 41 38 41 40 45 49 49 49
27 27 27 27 27 28 28 29 29 29 28 30 31 35 36 34 30 29 31 32 30 30 30 30 32 34 33 35 41 46 49 50 55
27 27 28 28 28 28 28 27 28 28 29 27 28 29 31 36 38 28 24 24 25 27 28 28 28 29 31 32 35 37 41 47 52
28 29 28 29 28 28 28 28 27 26 26 28 29 28 30 30 35 38 36 28 27 26 26 27 28 27 27 30 31 33 37 40 45
Wind_Direction
299 304 308 311 312 295 293 299 301 298 293 290 292 287 277 279 274 284 296 289 287 282 270 265 311 281 265 275 272 266 278 306 318
297 296 302 305 310 304 296 292 295 295 289 289 284 278 270 273 277 278 282 291 286 281 278 270 270 278 273 271 272 271 282 302 301
293 294 299 298 301 306 301 292 285 286 284 281 280 275 265 265 274 273 274 280 275 279 279 274 271 273 276 274 272 272 278 291 277
289 292 293 290 293 301 296 295 288 278 278 277 274 271 261 266 270 272 271 272 272 276 276 274 270 267 273 277 273 272 272 278 266
283 285 288 292 287 287 293 285 280 276 273 279 268 268 264 266 269 267 269 269 272 275 277 274 272 270 271 277 276 271 264 268 264
287 283 288 283 287 292 295 286 277 275 273 272 274 266 262 263 267 267 268 267 269 272 274 277 274 268 270 271 272 271 259 266 266
286 287 284 283 283 285 288 284 285 287 277 274 271 267 263 262 265 266 268 266 269 271 272 275 276 269 268 267 269 266 262 259 262
287 288 288 283 282 284 286 287 285 286 280 270 272 270 265 265 263 266 267 267 270 273 271 275 278 271 271 266 267 268 265 258 262
291 288 289 287 285 283 283 283 280 279 279 278 270 269 268 267 269 266 267 267 269 272 272 274 277 274 270 268 266 266 267 259 261
300 298 296 295 294 288 286 281 281 277 275 275 272 270 268 268 270 270 265 267 268 271 271 273 275 273 270 268 268 265 267 265 262
309 306 300 297 296 298 293 289 285 278 277 277 269 271 268 269 272 274 273 268 265 266 269 271 270 271 272 270 269 264 265 266 265
320 311 307 302 299 298 296 300 296 293 288 274 276 272 275 274 272 273 270 270 266 265 266 270 269 266 271 272 269 267 262 265 266
327 318 313 308 303 301 298 297 294 290 291 278 282 282 277 278 278 276 271 270 269 276 270 268 269 270 269 270 269 267 263 263 265
329 324 319 316 311 306 300 296 296 292 291 293 291 287 282 283 280 278 276 274 272 272 272 270 268 269 270 270 268 268 266 265 264
330 327 324 323 315 311 307 301 297 295 294 290 286 284 283 283 282 281 280 280 278 277 272 273 270 271 269 267 269 266 267 266 264
341 338 332 327 323 317 313 308 304 300 300 294 289 286 284 281 281 282 281 281 281 277 274 273 274 272 271 267 269 266 267 268 265
344 340 337 333 329 326 323 319 310 304 305 297 293 288 288 286 283 282 282 281 281 279 276 276 276 273 277 274 271 268 266 266 266
340 340 339 337 335 330 326 324 322 314 310 306 296 289 286 292 291 290 286 286 286 288 287 284 284 281 284 283 275 270 267 266 261
334 332 334 334 334 329 331 332 328 323 315 312 307 300 294 286 283 291 296 298 296 292 290 290 289 290 288 283 286 281 274 267 263
329 331 334 333 335 334 334 331 330 331 325 318 312 305 300 295 285 280 280 291 295 297 296 295 293 294 298 291 293 292 279 278 270